Regional Weather Roundup
Issued by NWS

Home | Current Version | Previous Version | Text Only | Print | Product List | Glossary On
Versions: 1 2 3 4 5 6 7 8 9 10 11 12 13 14 15 16 17 18 19 20 21 22 23 24 25 26 27 28 29 30 31 32 33 34 35 36 37 38 39 40 41 42 43 44 45 46 47 48 49 50
000
ASUS43 KMPX 062310
RWRMN
WEATHER ROUNDUP FOR MINNESOTA
NATIONAL WEATHER SERVICE TWIN CITIES/CHANHASSEN MN
600 PM CDT MON JUL 06 2015


NOTE: "FAIR" INDICATES FEW OR NO CLOUDS BELOW 12,000 FEET WITH NO
SIGNIFICANT WEATHER AND/OR OBSTRUCTIONS TO VISIBILITY. N/A MEANS
CURRENT SKY AND/OR WEATHER CONDITIONS ARE NOT AVAILABLE.

MNZ060>063-068>070-070000-
   Twin Cities Metro

CITY           SKY/WX    TMP DP  RH WIND       PRES   REMARKS
TWIN CITIES    PTSUNNY   72  57  59 N12       29.94S SMOKE
ST PAUL        CLOUDY    70  58  65 N12       29.94S HAZE
CRYSTAL        PTSUNNY   74  55  51 N10       29.93F HAZE
BLAINE         PTSUNNY   73  57  56 N12G17    29.95S HAZE
LAKEVILLE      SUNNY     68  57  68 N10       29.95S HAZE
EDEN PRAIRIE   CLOUDY    71  57  61 N10       29.94S HAZE
SOUTH ST PAUL  SUNNY     72  58  61 N9        29.94S HAZE
LAKE ELMO      PTSUNNY   70  61  73 N6        29.96S HAZE
$$
MNZ001>005-007-008-013>017-022>024-027-028-070000-
   Northwest Minnesota

CITY           SKY/WX    TMP DP  RH WIND       PRES   REMARKS
BEMIDJI        CLOUDY    59  46  61 N10G16    30.07S
HALLOCK        PTSUNNY   64  45  48 NW12      30.11S
ROSEAU         CLOUDY    61  46  59 N12       30.10R
WARROAD        CLOUDY    61  46  59 NW10      30.09R
THIEF RVR FALL CLOUDY    61  45  55 NW14      30.11R
CROOKSTON      MOSUNNY   64  46  52 N17       30.12R
FOSSTON        PTSUNNY   61  45  55 N16       30.11R
DETROIT LAKES  MOSUNNY   61  45  55 N15G21    30.10S
MOORHEAD       PTSUNNY   64  50  59 N10G20    30.11S
PARK RAPIDS    PTSUNNY   61  45  55 NW14G24   30.07S
MAHNOMEN       CLOUDY    61  46  58 N15G23    30.09S
$$
MNZ006-009>011-018-025>026-070000-
   North Central Minnesota

CITY           SKY/WX    TMP DP  RH WIND       PRES   REMARKS
BAUDETTE       CLOUDY    59  44  57 N9        30.06R
FLAG ISLAND    CLOUDY    61  43  51 N14G21    30.06S
INTL FALLS     CLOUDY    59  43  55 N12       30.03R
WASKISH        CLOUDY    61  46  59 NW9       30.06S
BIG FORK       CLOUDY    61  45  55 N5        30.04R
LONGVILLE      CLOUDY    61  48  63 NW7       30.04S
GRAND RAPIDS   CLOUDY    61  45  55 NW15G21   30.03R
CRANE LAKE     CLOUDY    57  45  62 N7G17     30.03R
COOK           CLOUDY    59  46  63 NW8       30.01R
WALKER         CLOUDY    59  45  58 N7        30.06R
$$
MNZ012-019>021-037-070000-
   Northeast Minnesota

CITY           SKY/WX    TMP DP  RH WIND       PRES   REMARKS
DULUTH         PTSUNNY   65  50  58 NW14G21   29.95R
ELY            CLOUDY    59  46  63 N9G20     29.97R
HIBBING        PTSUNNY   63  46  54 NW15G24   29.99R
DULUTH HARBOR    N/A     72  54  53 NW14      29.94R
TWO HARBORS    MOSUNNY   70  55  60 NW7       29.92R
SILVER BAY     PTSUNNY   66  52  59 NW5       29.92R
GRAND MARAIS     N/A     55  53  93 VRB3      29.89S
G MARAIS ARPRT MOSUNNY   61  48  63 NW8G18    29.93S
$$
MNZ029>031-032-039>041-046>048-054>057-064-070000-
   West Central Minnesota

CITY           SKY/WX    TMP DP  RH WIND       PRES   REMARKS
FERGUS FALLS   MOSUNNY   64  46  52 N18G28    30.08S
WHEATON        FAIR      64  48  55 N14G24    30.10S
MORRIS         SUNNY     66  48  52 N22G29    30.06S
ALEXANDRIA     MOSUNNY   65  47  52 NW16G24   30.08R
ELBOW LAKE     PTSUNNY   65  47  53 N22G29    30.07S
WADENA         CLOUDY    61  45  55 N15G23    30.07S
GLENWOOD       MOSUNNY   66  48  52 N18G26    30.06R
APPLETON       SUNNY     72  48  43 N22G28    30.06S
BENSON         SUNNY     68  46  45 N21G28    30.06R
ORTONVILLE     SUNNY     70  50  49 N15G26    30.07S
MADISON        MOSUNNY   70  50  49 N18G25    30.07S
WILLMAR        FAIR      72  52  49 N22G31    30.04R
$$
MNZ033>034-036-042>043-049>051-058-059-070000-
   Central Minnesota

CITY           SKY/WX    TMP DP  RH WIND       PRES   REMARKS
ST CLOUD       SUNNY     70  50  49 N12G25    29.98R
SAUK CENTRE    MOCLDY    65  48  53 N15G31    30.04R
PAYNESVILLE    SUNNY     66  48  51 W15G29    30.03R
AITKIN         CLOUDY    63  48  59 NW9G20    30.01R
PINE RIVER     CLOUDY    61  46  59 NW13G18   30.08S
BRAINERD       PTSUNNY   64  47  53 N14G24    30.03R
STAPLES        CLOUDY    61  45  55 N10G16    30.07R
LONG PRAIRIE   PTSUNNY   64  46  52 NW10G22   30.05R
LITTLE FALLS   PTSUNNY   68  46  45 NW10G20   30.02R
LITCHFIELD     SUNNY     72  52  49 N21G26    30.00R
BUFFALO        MOSUNNY   73  53  49 NW10G17   29.97S
MAPLE LAKE     MOSUNNY   72  55  55 NW15G21   29.98R
$$
MNZ037-044-045-052-053-070000-
   East Central Minnesota

CITY           SKY/WX    TMP DP  RH WIND       PRES   REMARKS
PRINCETON      MOSUNNY   72  55  56 NW12G21   29.97R
MORA           SUNNY     68  52  56 NW17G23   29.98R
CAMBRIDGE      SUNNY     73  55  53 N10G17    29.94S
RUSH CITY      MOSUNNY   69  55  61 NW8       29.95R
MOOSE LAKE     PTSUNNY   68  50  52 NW3       29.95R
HINCKLEY       MOCLDY    68  54  60 NW12G20   29.96R
CLOQUET        PTSUNNY   66  48  52 NW14      29.96R
MCGREGOR       PTSUNNY   64  46  52 NW14G22   30.00R
$$
MNZ071>073-080-081-089-090-097-098-070000-
   Southwest Minnesota

CITY           SKY/WX    TMP DP  RH WIND       PRES   REMARKS
GRANITE FALLS  SUNNY     69  52  55 NW21G29   30.05R
CANBY          MOSUNNY   69  52  55 N13G25    30.07S
MARSHALL       SUNNY     70  52  52 N22G28    30.03S
REDWOOD FALLS  SUNNY     72  53  51 NW16G22   30.00R HAZE
OLIVIA         SUNNY     68  50  52 N18G26    30.01R
PIPESTONE      MOSUNNY   70  55  60 N16G25    30.05S
WINDOM         MOSUNNY   72  55  56 N22       30.00S HAZE
WORTHINGTON    CLOUDY    70  55  60 N17G28    30.02S
JACKSON          N/A     70  59  68 VRB16G22  30.00R HAZE
TRACY          SUNNY     70  55  59 N21G29    30.04R
SLAYTON        MOSUNNY   68  55  62 N22G31    30.05R
$$
MNZ065>067-074>077-082>085-091>093-070000-
   South Central Minnesota

CITY           SKY/WX    TMP DP  RH WIND       PRES   REMARKS
MANKATO        CLOUDY    72  57  60 N12       29.96S
NEW ULM        MOSUNNY   72  55  56 N7G18     29.97R
ST JAMES       SUNNY     73  63  68 NW9G16    29.99R HAZE
FAIRMONT       CLOUDY    72  57  60 N14       29.96S
GLENCOE        MOSUNNY   73  59  61 NW13      29.96S
FARIBAULT      MOSUNNY   70  61  73 VRB7      29.96R
OWATONNA       SUNNY     70  57  64 N10       29.96R HAZE
WASECA           N/A     70  59  68 N8        29.97S HAZE
ALBERT LEA     MOSUNNY   70  59  68 N12       29.94F HAZE
$$
MNZ078>079-086>088-094>096-070000-
   Southeast Minnesota

CITY           SKY/WX    TMP DP  RH WIND       PRES   REMARKS
ROCHESTER      CLOUDY    66  58  75 N20       29.94S HAZE
RED WING       MOSUNNY   70  59  68 MISG      29.93R HAZE
STANTON        CLOUDY    70  57  64 VRB13     29.94R
DODGE CENTER   MOSUNNY   66  57  72 N15G21    29.95S HAZE
WINONA         CLOUDY    70  61  73 N8        29.91R HAZE
AUSTIN         MOSUNNY   70  57  64 N15G23    29.93F HAZE
PRESTON        MOSUNNY   65  57  76 N22G28    29.92S HAZE
$$
ABBREVIATIONS USED IN REMARKS
   TC - TEMPERATURES IN CELSIUS
  WCI - WIND CHILL INDEX
   HX - HEAT INDEX
  VSB - VISIBILITY
$$



USA.gov is the U.S. government's official web portal to all federal, state and local government web resources and services.